Location: Nemiskam
(49.4820°N, 111.2775°W)
Time: 08:27:47
(UTC+00:00)

Envisat - Pass Details

Date: 28 November 2022
Orbit: 763 x 765 km, 98.2° (Epoch: 28 January)

Event Time Altitude Azimuth Distance (km) Brightness Sun altitude
Rises 10:47:10 0° 23° (NNE) 3,246 6.7 -39.5°
Reaches altitude 10° 10:49:50 10° 35° (NE) 2,314 5.9 -39.1°
Enters shadow 10:52:03 21° 57° (ENE) 1,693 5.2 -38.7°
